Wind_Speed
26 26 26 27 27 27 27 27 26 26 24 24 23 22 22 22 22 21 21 20 19 19 20 20 20 20 19 18 17 17 17 17 17 17 16 16 16 16 16 16 16 16 16 16
25 26 27 26 26 26 27 27 26 26 25 24 23 22 21 21 22 22 22 22 21 20 21 21 21 21 21 20 19 18 17 17 17 18 18 18 17 17 18 17 17 16 17 17
23 23 25 26 25 25 26 25 25 25 24 24 23 23 22 21 21 23 23 23 22 22 22 22 22 23 23 22 21 20 19 19 18 19 19 20 19 19 19 19 18 17 18 18
22 23 24 25 25 25 25 25 24 24 24 24 23 23 22 22 22 22 23 23 23 22 22 23 22 23 23 23 22 21 20 20 20 20 21 21 21 20 20 20 19 19 18 18
22 23 24 25 24 24 25 26 25 24 24 25 24 23 23 23 23 23 23 24 23 22 22 22 23 24 24 23 23 22 22 22 22 22 21 21 21 21 21 21 20 19 19 19
23 23 23 24 24 25 26 26 25 25 25 25 25 25 24 24 24 24 24 24 23 23 23 24 24 25 25 25 24 23 22 23 23 22 22 22 22 22 22 22 21 21 21 20
23 23 23 25 25 25 26 27 26 25 25 26 26 26 25 25 26 26 26 25 24 24 24 24 24 24 24 25 24 23 23 23 22 22 22 23 23 23 23 22 22 21 22 21
23 24 25 24 25 25 26 27 27 26 25 25 26 26 26 26 27 27 27 26 26 25 25 25 24 24 24 24 23 23 22 23 23 23 24 24 23 23 23 23 22 23 23 22
22 23 24 25 25 24 24 25 25 26 26 25 25 25 26 27 27 27 27 27 27 27 26 26 26 25 25 25 25 24 24 24 24 23 24 24 24 24 23 23 23 22 22 22
22 22 23 24 24 24 24 24 24 25 25 25 25 25 25 26 26 27 27 27 27 27 27 27 27 25 24 24 25 25 25 25 25 24 23 23 24 23 23 24 23 23 23 23
23 23 23 24 24 23 23 23 24 24 25 24 24 25 26 26 26 27 27 27 27 27 26 26 26 26 25 24 24 24 24 24 24 24 23 22 22 22 22 22 23 23 24 24
23 23 24 24 24 23 22 22 22 23 24 24 24 24 25 25 26 26 26 26 26 26 26 26 25 24 24 24 23 23 23 23 23 23 23 23 22 22 22 23 23 24 24 24
23 22 23 24 24 23 22 22 23 22 23 23 23 22 22 23 25 26 26 26 26 26 27 26 26 25 23 23 24 24 24 24 24 24 24 23 22 22 22 22 23 23 24 25
22 22 22 22 23 23 22 23 23 23 23 23 23 22 22 23 24 25 26 26 27 27 27 27 26 25 24 23 23 23 24 24 24 24 23 22 22 23 22 23 23 24 25 26
21 22 23 22 22 22 21 21 22 23 23 23 22 22 22 23 23 23 24 25 26 27 27 25 25 25 25 25 24 24 23 23 23 23 23 23 23 23 24 24 24 24 25 26
19 20 21 22 22 21 21 21 21 21 22 22 23 23 23 23 22 22 23 24 25 25 25 25 25 25 25 26 26 25 25 24 24 24 24 24 25 25 25 25 25 26 27 26
17 18 19 20 20 21 21 21 20 20 20 22 22 21 21 22 22 22 23 24 25 25 25 25 25 26 26 26 26 26 25 25 25 25 25 25 25 25 25 26 26 26 27 27
17 17 17 18 20 20 20 20 19 19 20 21 21 22 22 22 22 22 23 24 24 25 25 25 25 25 25 26 26 27 26 26 26 26 26 26 27 26 26 27 27 27 27 28
16 16 17 17 17 17 17 18 18 19 19 20 20 22 22 22 22 22 22 22 22 23 24 24 25 26 26 26 26 26 26 26 26 26 25 26 26 27 27 27 28 28 28 28
14 14 15 15 15 15 15 15 16 17 18 18 19 20 21 22 22 22 22 22 23 23 24 24 24 24 25 26 26 26 26 26 26 26 26 26 26 27 27 27 27 28 28 28
11 11 12 13 13 14 14 14 15 16 16 17 17 18 18 19 20 20 21 22 23 23 24 24 24 24 24 25 25 25 26 25 25 26 26 26 27 27 27 27 28 28 28 28
11 11 11 12 12 13 13 13 14 15 15 16 17 18 18 18 19 19 20 21 21 20 20 21 22 22 23 23 23 24 24 25 25 26 26 27 27 27 27 27 27 27 27 27
11 11 11 12 13 13 13 14 14 15 16 17 18 19 19 19 19 20 20 20 20 19 19 19 20 20 21 22 22 23 24 25 26 26 26 26 26 26 27 27 27 27 27 27
12 12 12 13 13 13 14 15 15 16 16 17 17 17 18 19 19 19 19 19 18 18 18 19 19 20 20 21 21 22 23 24 24 25 25 25 25 25 25 26 27 27 27 26
11 11 12 13 13 14 14 14 15 15 16 16 17 17 18 18 18 18 18 17 17 17 17 17 18 19 19 20 20 21 21 22 23 23 23 23 23 24 24 25 25 25 25 26
11 11 12 12 13 13 14 14 14 15 15 15 15 16 17 17 16 16 16 16 16 16 17 17 17 17 18 19 20 20 21 21 21 22 22 22 23 23 24 23 23 24 24 24
11 11 12 12 12 12 13 13 13 13 14 14 15 15 15 15 14 14 14 14 15 15 16 16 17 18 19 19 20 21 21 21 21 21 21 22 23 23 23 23 23 23 24 24
Wind_Direction
242 242 244 245 243 242 242 242 244 246 248 251 251 250 249 250 250 250 252 253 252 252 252 250 251 252 255 258 261 263 263 264 265 268 271 274 278 283 289 293 295 296 298 298
245 244 244 243 242 243 243 243 244 245 247 248 249 248 247 248 249 249 251 251 250 252 252 250 250 252 253 257 261 262 262 265 268 270 271 273 277 282 285 290 295 298 299 299
245 244 244 244 242 243 244 243 244 246 246 247 246 244 245 246 248 249 251 253 252 252 252 251 251 253 254 255 257 260 261 263 267 268 270 272 275 278 281 286 293 296 297 297
247 245 244 245 243 242 242 242 243 244 245 245 245 244 243 245 247 247 249 252 251 251 251 252 252 252 251 252 255 258 261 262 265 267 269 272 275 276 279 283 288 291 293 294
245 246 246 246 244 241 241 242 244 246 245 245 245 247 246 245 246 247 245 246 247 249 249 252 253 253 252 252 253 257 260 262 264 266 268 271 272 275 277 279 283 286 289 291
246 246 248 249 246 242 242 244 245 245 246 246 248 249 249 247 247 246 245 245 246 248 250 253 255 257 255 252 255 257 259 262 265 265 266 269 271 274 276 278 280 282 286 288
246 247 249 250 249 246 245 246 247 248 248 246 247 248 249 249 247 243 243 244 246 248 251 253 255 255 254 253 256 259 260 262 264 266 267 270 271 273 273 274 277 281 284 285
248 248 250 251 251 248 248 248 248 247 246 246 247 248 248 248 246 243 243 245 246 248 251 252 254 257 257 257 257 259 260 262 263 266 268 269 271 272 273 275 276 278 279 281
249 249 252 252 252 251 250 250 249 248 247 246 247 248 247 245 245 244 244 245 246 247 249 251 253 256 256 256 258 261 262 262 263 264 265 267 269 272 272 274 275 277 278 280
252 253 254 254 253 253 252 251 251 249 246 246 246 247 246 244 242 242 243 244 246 248 249 251 253 254 253 255 258 259 260 262 264 266 266 267 268 270 272 270 273 276 278 279
252 253 254 254 253 255 254 254 252 248 245 246 246 245 244 241 239 239 242 244 247 250 251 252 251 253 253 256 257 258 259 261 263 266 267 267 267 268 271 272 273 275 278 279
254 254 254 253 253 253 254 254 250 246 243 242 244 244 244 241 241 242 242 244 247 249 249 251 250 251 254 255 257 256 258 261 264 266 267 266 267 269 270 272 275 277 277 280
255 255 253 253 251 251 252 251 248 245 243 241 243 244 242 241 241 242 243 245 247 249 250 252 252 254 255 255 255 258 260 262 265 268 268 267 270 273 273 272 275 277 279 281
255 252 251 251 250 249 249 248 246 244 242 241 241 242 242 242 242 242 244 246 248 250 253 255 256 255 254 258 260 263 264 264 265 267 266 267 270 273 275 276 277 278 279 282
255 250 249 249 249 250 250 249 245 243 240 239 239 239 240 242 244 245 245 246 248 251 253 255 255 254 256 256 259 262 263 264 266 267 266 268 270 271 273 276 277 278 279 283
252 249 247 247 249 250 250 249 248 245 241 239 240 239 241 242 244 246 246 246 248 251 253 255 256 257 258 257 258 261 263 264 266 268 267 268 270 272 274 276 278 278 278 280
253 251 249 248 248 248 249 250 249 245 240 239 239 241 244 245 246 248 248 249 249 250 251 254 256 257 257 259 259 261 262 263 266 268 268 268 270 273 274 276 277 278 278 280
255 253 252 251 249 248 248 247 245 244 243 243 244 246 247 248 248 250 251 250 251 251 253 254 255 256 257 260 262 263 263 264 266 268 268 268 270 272 274 276 278 278 278 279
256 253 251 250 248 249 249 246 243 242 243 245 246 245 245 246 248 249 252 253 254 255 254 254 254 256 257 260 263 264 265 265 266 267 268 269 271 273 274 276 277 278 280 280
255 248 246 245 245 246 246 244 241 239 243 247 246 245 247 248 249 251 253 256 257 258 257 258 258 259 258 260 262 263 265 266 267 267 269 270 273 274 275 274 276 279 281 281
254 251 251 248 246 245 243 242 241 240 241 244 244 247 249 250 252 254 256 258 260 261 261 260 261 261 261 261 263 264 266 266 267 269 270 272 274 275 275 275 277 278 280 281
257 255 251 247 244 244 243 244 245 244 244 245 247 250 252 253 255 257 258 259 260 262 262 261 261 261 263 263 264 266 266 267 268 270 271 273 274 276 276 277 277 278 279 279
255 251 248 246 246 245 248 250 248 245 247 248 250 251 252 254 256 259 261 262 261 261 261 261 262 263 265 266 268 269 269 269 269 270 271 272 274 275 276 277 278 280 280 279
251 251 251 246 246 250 251 251 250 249 247 248 251 252 252 253 257 261 262 261 263 265 265 264 264 265 266 269 272 273 274 272 271 271 272 273 274 275 277 278 279 281 281 280
257 255 253 250 250 252 251 251 251 251 251 252 253 252 252 254 259 259 258 261 263 265 269 270 270 271 271 272 275 276 275 274 275 274 274 274 275 276 278 280 280 281 281 281
255 257 258 258 258 255 253 253 255 253 251 252 253 254 256 257 254 255 260 262 264 270 274 276 275 275 275 276 276 278 278 278 277 276 276 276 277 278 279 280 281 282 283 283
251 253 257 261 261 259 257 257 256 255 255 256 259 258 258 257 257 261 265 268 271 275 279 281 282 283 282 282 282 281 281 280 279 279 280 279 279 280 280 281 283 284 286 286
Height
5794 5796 5798 5800 5802 5805 5807 5809 5812 5815 5817 5819 5820 5821 5823 5824 5825 5826 5828 5829 5830 5832 5832 5833 5834 5836 5837 5837 5838 5839 5839 5839 5839 5838 5838 5838 5838 5837 5836 5834 5832 5830 5828 5826
5787 5789 5791 5793 5796 5798 5800 5802 5805 5807 5810 5812 5813 5815 5817 5818 5819 5821 5822 5823 5824 5826 5827 5828 5829 5830 5831 5832 5833 5834 5834 5835 5834 5834 5834 5834 5833 5832 5831 5830 5828 5826 5824 5822
5780 5783 5784 5787 5789 5791 5793 5795 5798 5801 5804 5805 5807 5809 5810 5812 5813 5814 5816 5817 5819 5820 5821 5822 5823 5824 5825 5826 5828 5828 5829 5830 5830 5829 5829 5829 5828 5827 5826 5825 5824 5822 5820 5818
5774 5777 5778 5782 5783 5785 5787 5789 5791 5794 5796 5798 5800 5802 5804 5805 5807 5808 5809 5811 5812 5813 5815 5816 5817 5818 5819 5820 5822 5823 5823 5824 5824 5824 5824 5823 5823 5822 5821 5820 5819 5817 5816 5814
5768 5770 5772 5775 5776 5778 5781 5783 5785 5787 5789 5791 5794 5796 5797 5799 5800 5801 5803 5804 5806 5807 5809 5810 5811 5812 5813 5814 5815 5817 5817 5818 5818 5818 5818 5818 5817 5816 5815 5814 5813 5812 5811 5809
5762 5764 5766 5769 5769 5771 5775 5776 5778 5780 5782 5785 5787 5789 5791 5792 5793 5795 5796 5797 5799 5801 5802 5803 5804 5805 5807 5808 5809 5810 5811 5811 5811 5811 5811 5811 5811 5810 5809 5808 5808 5807 5805 5803
5755 5757 5759 5761 5762 5765 5769 5770 5771 5773 5775 5777 5779 5781 5783 5784 5785 5787 5789 5791 5793 5794 5795 5797 5798 5799 5799 5801 5802 5803 5804 5804 5804 5804 5804 5804 5804 5804 5803 5802 5801 5800 5799 5798
5749 5751 5754 5754 5755 5758 5760 5761 5763 5765 5767 5769 5771 5773 5774 5775 5777 5779 5781 5783 5785 5787 5788 5790 5791 5792 5793 5794 5795 5796 5797 5797 5797 5797 5798 5798 5797 5797 5796 5795 5795 5794 5793 5791
5744 5746 5746 5747 5748 5750 5752 5754 5756 5757 5760 5761 5763 5765 5766 5767 5769 5771 5774 5776 5778 5779 5781 5783 5784 5785 5786 5787 5788 5789 5790 5791 5791 5790 5790 5790 5790 5790 5789 5789 5788 5787 5786 5785
5736 5738 5739 5740 5742 5743 5745 5746 5748 5750 5752 5753 5755 5757 5758 5759 5761 5764 5766 5768 5771 5772 5774 5775 5777 5778 5779 5780 5781 5782 5783 5783 5784 5783 5783 5783 5783 5783 5782 5782 5781 5781 5780 5778
5729 5731 5733 5734 5735 5736 5738 5739 5740 5742 5744 5746 5747 5749 5751 5753 5755 5757 5759 5761 5763 5765 5767 5768 5769 5771 5772 5773 5774 5775 5775 5776 5776 5776 5777 5776 5776 5776 5776 5775 5775 5774 5773 5771
5723 5724 5725 5726 5727 5729 5730 5731 5733 5734 5737 5738 5740 5742 5744 5746 5748 5750 5752 5754 5756 5758 5760 5761 5763 5764 5765 5766 5767 5768 5768 5769 5769 5769 5769 5769 5769 5769 5769 5768 5768 5767 5765 5764
5716 5716 5718 5719 5720 5722 5723 5724 5726 5727 5729 5731 5733 5735 5737 5739 5741 5743 5745 5747 5750 5751 5752 5754 5755 5757 5758 5759 5760 5761 5761 5762 5762 5763 5763 5762 5762 5762 5762 5761 5761 5760 5758 5757
5708 5709 5710 5712 5713 5715 5716 5717 5718 5720 5722 5725 5726 5728 5730 5733 5734 5736 5738 5740 5742 5744 5745 5746 5747 5749 5751 5752 5753 5754 5754 5755 5755 5756 5756 5756 5755 5755 5755 5754 5753 5752 5751 5749
5701 5702 5703 5705 5706 5708 5709 5710 5712 5714 5716 5718 5720 5722 5724 5726 5728 5730 5731 5733 5735 5736 5738 5739 5741 5742 5743 5745 5746 5747 5747 5748 5748 5748 5748 5748 5748 5748 5747 5746 5745 5744 5743 5742
5694 5695 5697 5698 5700 5701 5702 5703 5705 5707 5709 5711 5713 5715 5717 5719 5721 5723 5725 5726 5728 5729 5731 5732 5733 5734 5736 5737 5738 5739 5740 5740 5740 5740 5741 5740 5740 5740 5739 5738 5738 5736 5735 5734
5688 5689 5690 5692 5693 5694 5696 5697 5699 5700 5702 5704 5706 5708 5710 5712 5714 5716 5717 5719 5720 5721 5723 5724 5726 5727 5728 5729 5730 5731 5732 5732 5732 5732 5732 5732 5732 5732 5731 5730 5729 5728 5727 5725
5682 5683 5684 5685 5686 5687 5689 5691 5692 5694 5696 5698 5700 5702 5703 5705 5707 5708 5710 5711 5712 5714 5715 5716 5718 5719 5720 5721 5722 5722 5723 5723 5724 5724 5724 5724 5724 5723 5723 5722 5721 5719 5718 5716
5677 5677 5678 5679 5680 5682 5683 5685 5686 5688 5690 5692 5694 5695 5697 5698 5700 5701 5703 5704 5705 5706 5707 5708 5709 5710 5712 5712 5713 5713 5714 5714 5715 5715 5715 5715 5714 5714 5714 5713 5712 5711 5709 5707
5671 5672 5673 5674 5675 5676 5678 5679 5681 5683 5684 5686 5687 5689 5690 5692 5693 5695 5696 5697 5698 5699 5700 5701 5701 5702 5703 5704 5704 5705 5705 5705 5705 5705 5706 5706 5705 5705 5704 5704 5703 5701 5700 5698
5667 5668 5668 5669 5671 5672 5673 5675 5676 5677 5679 5680 5682 5683 5684 5686 5687 5688 5689 5690 5691 5691 5692 5692 5693 5694 5694 5695 5695 5696 5696 5696 5696 5696 5696 5696 5696 5696 5695 5694 5693 5692 5690 5689
5664 5664 5665 5666 5667 5668 5669 5670 5672 5673 5674 5675 5677 5678 5679 5681 5682 5682 5683 5684 5684 5684 5684 5685 5685 5686 5686 5687 5687 5687 5687 5688 5687 5687 5687 5687 5686 5686 5685 5684 5683 5682 5681 5680
5661 5661 5662 5663 5664 5664 5665 5666 5667 5669 5669 5670 5671 5672 5673 5675 5676 5676 5677 5677 5677 5677 5677 5678 5678 5678 5679 5679 5679 5679 5679 5679 5678 5678 5678 5677 5677 5676 5675 5675 5674 5672 5671 5670
5658 5658 5658 5659 5660 5661 5661 5662 5663 5664 5665 5666 5666 5667 5668 5669 5669 5670 5670 5671 5671 5671 5671 5671 5671 5671 5671 5671 5671 5671 5670 5670 5670 5669 5669 5668 5668 5667 5666 5665 5664 5663 5662 5661
5654 5654 5655 5656 5656 5657 5657 5658 5659 5659 5660 5661 5662 5662 5663 5664 5664 5665 5665 5665 5665 5665 5665 5665 5664 5664 5664 5664 5664 5664 5663 5662 5662 5661 5660 5660 5659 5658 5658 5657 5656 5654 5653 5652
5651 5651 5651 5652 5652 5652 5653 5653 5654 5655 5655 5656 5657 5657 5658 5658 5658 5659 5659 5660 5660 5659 5659 5659 5658 5658 5658 5658 5657 5657 5656 5655 5654 5653 5652 5652 5651 5650 5650 5649 5648 5646 5645 5643
5647 5648 5648 5648 5648 5648 5649 5649 5650 5650 5651 5651 5652 5652 5652 5653 5653 5654 5654 5654 5654 5654 5653 5653 5652 5652 5652 5651 5650 5649 5648 5647 5647 5646 5645 5645 5644 5643 5642 5641 5640 5638 5637 5635